www.pogodaiklimat.ru

Погода и климат >> Архив погоды >> Австралия >> Западная Австралия >> Джеральдтон


ПОГОДА в Джеральдтоне

  • Прогноз погоды в Джеральдтоне
  • Монитор погоды в Джеральдтоне

АРХИВ ПОГОДЫ в Джеральдтоне

Время (UTC), дата Ветер
(напр.,м/с)
 
Видим.   Явления Облачность Т
(С)
Тd
(С)
f
(%)
Тe
(С)
Тes
(С)
Комфортность P
(гПа)
Po
(гПа)
Тmin
(С)
Tmax
(С)
R
(мм)
R24
(мм)
S
(см)
07 12.05 ЮЗ 6 н/о н/о +25.2 +4.9 27 +25 +25 комфорт 1020.0 1016.4
09 12.05 Ю 5 н/о н/о +22.4 +9.9 45 +24 +24 комфорт 1020.2 1016.6
10 12.05 Ю 4 н/о н/о +18.9 +13.5 71 +20 +20 1020.9 1017.3
12 12.05 ЮВ 3 н/о н/о +14.0 +11.0 82 +13 +13 1022.0 1018.4
13 12.05 ЮВ 3 н/о н/о +13.8 +11.7 87 +13 +13 1022.1 1018.5 +27.0
15 12.05 Ю 3 н/о н/о +11.9 +10.6 92 +10 +10 1022.0 1018.4
16 12.05 Ю 3 н/о н/о +11.0 +9.8 92 +9 +9 1021.9 1018.3
18 12.05 В 2 н/о н/о +9.7 +8.9 95 +8 +8 1021.6 1018.0
19 12.05 В 2 7000 м н/о +9.0 +7.9 93 +8 +8 1021.4 1017.8
21 12.05 В 2 н/о н/о +9.6 +7.2 85 +8 +8 1021.5 1017.9
22 12.05 СВ 3 н/о н/о +8.4 +6.0 85 +6 +6 1021.8 1018.2
00 13.05 СВ 4 н/о н/о +12.2 +8.3 77 +10 +10 1022.8 1019.2
01 13.05 ЮВ 3 н/о н/о +16.8 +7.7 55 +17 +17 1023.3 1019.7 +7.1
03 13.05 ЮВ 3 н/о н/о +22.6 +4.6 31 +23 +23 комфорт 1022.8 1019.2
04 13.05 Ю 3 н/о н/о +24.9 +4.6 27 +24 +24 комфорт 1021.9 1018.3
06 13.05 ЮЗ 7 н/о н/о +24.7 +9.8 39 +26 +26 жарко 1020.3 1016.7
07 13.05 Ю 6 н/о н/о +24.1 +7.3 34 +24 +24 комфорт 1020.4 1016.8
09 13.05 Ю 6 н/о н/о +22.0 +9.9 46 +24 +24 комфорт 1020.7 1017.1
10 13.05 Ю 5 н/о н/о +19.0 +13.4 70 +20 +20 1021.2 1017.6
12 13.05 ЮВ 3 н/о н/о +14.8 +12.5 86 +14 +14 1022.1 1018.5
13 13.05 ЮВ 3 н/о н/о +13.4 +11.3 87 +12 +12 1022.1 1018.5 +26.0
15 13.05 ЮВ 3 н/о н/о +11.0 +9.8 92 +9 +9 1022.4 1018.8
16 13.05 ЮВ 3 н/о н/о +9.9 +8.2 89 +8 +8 1022.2 1018.6
18 13.05 В 2 н/о н/о +9.1 +7.7 91 +7 +7 1021.8 1018.2
19 13.05 СВ 4 н/о н/о +8.5 +6.6 88 +5 +5 1021.7 1018.1
21 13.05 СВ 6 н/о н/о +10.9 +5.0 67 +8 +8 1021.3 1017.7
22 13.05 СВ 6 н/о 9/0
[]
+10.4 +3.9 64 +7 +7 1021.4 1017.8
00 14.05 СВ 5 н/о н/о +13.6 +1.6 44 +12 +12 1022.1 1018.6
01 14.05 СВ 6 н/о 4/0
[]
+17.2 +1.2 34 +16 +17 1022.2 1018.6 +7.6
03 14.05 СВ 7 н/о н/о +27.4 -0.6 16 +25 +25 комфорт 1021.6 1018.1
04 14.05 СВ 6 н/о н/о +28.7 -1.4 14 +26 +26 жарко 1020.5 1016.9
06 14.05 СВ 6 н/о н/о +30.7 -1.9 12 +27 +27 жарко 1018.8 1015.2
07 14.05 ЮЗ 6 н/о н/о +28.5 +1.1 17 +26 +26 жарко 1018.6 1015.0
09 14.05 Ю 4 н/о н/о +24.1 +9.7 40 +25 +25 комфорт 1019.3 1015.7
10 14.05 Ю 3 н/о 3/0
[]
+20.5 +11.2 55 +23 +23 комфорт 1019.8 1016.2
12 14.05 В 3 н/о н/о +15.5 +7.5 59 +15 +15 1020.6 1017.0
13 14.05 В 1 н/о н/о +14.3 +6.2 58 +16 +16 1020.8 1017.2 +31.3
15 14.05 С 4 н/о н/о +13.4 +6.3 62 +12 +12 1020.5 1016.9
16 14.05 С 4 н/о н/о +12.8 +4.3 56 +11 +11 1020.2 1016.6
18 14.05 С 7 н/о н/о +13.7 +2.6 47 +12 +12 1019.2 1015.6
19 14.05 С 4 н/о 10/0
[]
+14.0 +2.0 44 +13 +13 1019.0 1015.4
21 14.05 СВ 4 н/о н/о +13.6 +1.3 43 +12 +12 1019.0 1015.4
22 14.05 В 2 н/о н/о +12.1 -0.4 42 +12 +12 1019.6 1016.0
00 15.05 СВ 8 н/о н/о +17.2 -1.4 28 +16 +16 1020.1 1016.5
01 15.05 СВ 8 н/о 4/0
[]
+21.3 -1.9 21 +21 +21 комфорт 1020.1 1016.5 +11.1
03 15.05 С 6 н/о н/о +29.8 -2.6 12 +27 +27 жарко 1019.5 1015.9
04 15.05 СЗ 6 н/о н/о +30.9 -1.8 12 +28 +28 жарко 1018.7 1015.1
06 15.05 З 7 н/о н/о +30.4 -2.2 12 +27 +27 жарко 1017.4 1013.8
07 15.05 З 6 н/о н/о +28.1 +6.2 25 +27 +27 жарко 1017.4 1013.8
09 15.05 З 4 н/о н/о +24.4 +9.2 38 +25 +25 комфорт 1017.8 1014.2
10 15.05 ЮЗ 1 н/о н/о +20.4 +12.4 60 +24 +24 комфорт 1018.2 1014.6
12 15.05 СВ 2 н/о н/о +15.0 +8.0 63 +15 +15 1019.2 1015.6
13 15.05 СВ 4 н/о н/о +14.1 +7.9 66 +13 +13 1019.3 1015.7 +31.9
15 15.05 С 4 н/о н/о +13.9 +7.9 67 +13 +13 1019.0 1015.4
16 15.05 С 6 н/о 10/0
[]
+13.2 +6.3 63 +11 +11 1018.6 1015.0
18 15.05 С 2 н/о н/о +11.3 +5.4 67 +11 +11 1018.4 1014.8
19 15.05 С 4 н/о 3/3 300 м
[]
+11.6 +5.9 68 +10 +10 1018.1 1014.5
21 15.05 С 4 н/о н/о +12.3 +5.7 64 +11 +11 1018.3 1014.7
22 15.05 С 5 н/о 9/0
[]
+11.7 +5.3 65 +9 +9 1018.3 1014.7
00 16.05 С 3 н/о н/о +14.5 +7.3 62 +14 +14 1019.3 1015.7
01 16.05 С 5 н/о 8/0
[]
+16.8 +8.0 56 +16 +17 1019.4 1015.8 +10.5
03 16.05 ЮЗ 4 н/о н/о +22.4 +16.7 70 +27 +27 душно 1019.5 1015.9
04 16.05 ЮЗ 7 н/о 6/6 600 м
[]
+23.1 +15.2 61 +27 +28 душно 1019.3 1015.7
06 16.05 ЮЗ 6 н/о н/о +22.8 +15.6 64 +27 +27 душно 1018.3 1014.7
07 16.05 Ю 6 н/о 10/10 600 м
[]
+22.3 +15.2 64 +26 +26 жарко 1018.5 1014.9
09 16.05 Ю 11 н/о н/о +18.3 +15.9 86 +17 +17 1019.4 1015.8
10 16.05 Ю 10 н/о 10/10 1000 м
[]
+18.0 +14.5 80 +17 +17 1020.2 1016.6
12 16.05 ЮВ 9 н/о н/о +16.1 +11.3 73 +14 +14 1022.2 1018.6
13 16.05 ЮВ 9 н/о н/о +15.0 +8.5 65 +13 +13 1022.5 1018.9 +24.5
15 16.05 ЮВ 5 н/о н/о +11.0 +7.7 80 +8 +8 1023.2 1019.6
16 16.05 ЮВ 4 н/о н/о +10.4 +8.0 85 +8 +8 1023.3 1019.7
18 16.05 ЮВ 5 н/о н/о +9.3 +7.3 87 +6 +6 1023.8 1020.2
19 16.05 ЮВ 5 н/о н/о +8.5 +6.6 88 +5 +5 1023.9 1020.3
21 16.05 ЮВ 4 н/о н/о +7.4 +5.4 87 +4 +4 1024.3 1020.7
22 16.05 ЮВ 5 н/о н/о +7.7 +5.2 84 +4 +4 1024.8 1021.2
00 17.05 ЮВ 6 н/о н/о +8.5 +5.3 80 +5 +5 1026.2 1022.6
01 17.05 ЮВ 8 н/о н/о +11.9 +4.9 62 +9 +9 1026.3 1022.7 +6.2
03 17.05 ЮВ 11 н/о н/о +15.4 +1.2 38 +13 +13 1025.4 1021.8
04 17.05 ЮВ 9 н/о н/о +16.6 -0.1 32 +15 +15 1024.5 1020.9
06 17.05 ЮВ 8 н/о н/о +18.4 -0.4 28 +18 +18 1022.5 1019.0
07 17.05 ЮВ 8 н/о н/о +19.0 -0.9 26 +18 +18 1022.3 1018.7
09 17.05 ЮВ 8 н/о н/о +16.9 -1.7 28 +16 +16 1022.4 1018.8
10 17.05 ЮВ 6 н/о н/о +14.7 -1.4 33 +13 +13 1022.9 1019.3
12 17.05 ЮВ 4 н/о н/о +9.7 -0.8 48 +7 +7 1024.2 1020.6
13 17.05 ЮВ 4 н/о н/о +7.7 -1.3 53 +5 +5 1024.7 1021.1 +19.1
15 17.05 В 4 н/о н/о +8.0 0.0 57 +5 +5 1024.8 1021.2
16 17.05 В 5 н/о н/о +9.0 +0.7 56 +6 +6 1024.4 1020.8
18 17.05 В 3 н/о н/о +5.6 0.0 67 +3 +3 1024.3 1020.7
19 17.05 ЮВ 3 н/о н/о +3.9 -1.1 70 0 0 1023.9 1020.3
21 17.05 ЮВ 4 н/о н/о +3.3 -0.9 74 -1 -1 1023.3 1019.7
22 17.05 ЮВ 1 н/о н/о +2.4 -1.2 77 +1 +1 1024.0 1020.4
00 18.05 В 2 н/о н/о +7.9 +2.6 69 +7 +7 1025.3 1021.7
01 18.05 В 6 н/о н/о +12.0 +3.0 54 +10 +10 1025.1 1021.5 +1.2
03 18.05 В 8 н/о н/о +16.6 +1.1 35 +15 +15 1023.4 1019.8
04 18.05 В 7 н/о н/о +18.0 +0.2 30 +17 +17 1022.3 1018.7
06 18.05 В 6 н/о н/о +20.0 -0.6 25 +20 +20 1020.4 1016.8
07 18.05 ЮВ 7 н/о н/о +20.4 -3.3 20 +20 +20 1020.1 1016.5
09 18.05 В 5 н/о н/о +18.9 -2.1 24 +19 +19 1020.4 1016.8
10 18.05 ЮВ 4 н/о н/о +14.7 -3.6 28 +14 +14 1020.8 1017.2
12 18.05 ЮВ 4 н/о н/о +10.1 -2.9 40 +8 +8 1021.8 1018.2
13 18.05 ЮВ 3 н/о н/о +8.2 -3.0 45 +6 +6 1022.0 1018.4 +21.2
15 18.05 штиль 0 н/о н/о +7.5 -2.0 51 +7 +7 1021.3 1017.7
16 18.05 В 3 н/о н/о +10.4 +1.0 52 +9 +9 1020.7 1017.1
18 18.05 СВ 4 н/о н/о +7.6 -1.6 52 +5 +5 1020.3 1016.7
19 18.05 СВ 2 н/о н/о +7.4 -1.3 54 +6 +6 1019.8 1016.2
21 18.05 СВ 5 н/о н/о +5.4 -1.1 63 +1 +1 1019.1 1015.5
22 18.05 СВ 4 н/о н/о +4.5 -1.9 63 +1 +1 1019.2 1015.6
00 19.05 СВ 5 н/о н/о +9.2 +0.1 53 +6 +6 1019.3 1015.7
01 19.05 СВ 7 н/о н/о +13.9 -0.5 37 +12 +12 1019.2 1015.6 +4.5
03 19.05 СВ 7 н/о н/о +21.3 -0.6 23 +21 +21 комфорт 1018.2 1014.6
04 19.05 С 5 н/о н/о +23.5 -1.4 19 +22 +22 комфорт 1016.9 1013.3
06 19.05 СЗ 6 н/о н/о +24.0 -0.3 20 +23 +23 комфорт 1015.3 1011.7
07 19.05 З 6 н/о н/о +23.3 +5.2 31 +23 +23 комфорт 1014.9 1011.3

 

Местоположение метеостанции Джеральдтон (Западная Австралия, Австралия): широта -28.80 долгота 114.70 высота над уровнем моря 35 м.

В архиве по умолчанию представлена погода в Джеральдтоне за последнюю неделю. Архивные данные за месяц целиком и за предыдущие месяцы, начиная с января 2011 года, Вы можете получить, выбрав интересующий диапазон дат из раскрывающегося списка и нажав кнопку "Ввод!".


*Определитесь, кто Вы:
робот инопланетянин человек

Внимание! Время в таблицах - всемирное. Для получения местного времени необходимо прибавить поправку, которая равна 8 ч.

Смотрите также архив погоды в соседних городах и на ближайших метеорологических станциях:

Погода в Мораве (Западная Австралия, Австралия) (136 км)
Погода в Баджингарре (Западная Австралия, Австралия) (188 км)
Погода в Дауоллину (Западная Австралия, Австралия) (252 км)
Погода в Маунт Магнет аэропорту (Западная Австралия, Австралия) (316 км)
Погода в Гингине (Западная Австралия, Австралия) (318 км)
Погода в Шарк-Бэе (Западная Австралия, Австралия) (341 км)
Погода в Буллсбрук Пирс (Западная Австралия, Австралия) (343 км)
Погода в Ошен Риф (Западная Австралия, Австралия) (344 км)
Погода в Перт Монт-Лоули (Западная Австралия, Австралия) (365 км)
Погода в Суонборне (Западная Австралия, Австралия) (365 км)

Пояснения к столбцам:

Ветер - указаны скорость ветра в м/с - средняя за 10 мин, порывы в срок и между сроками (в фигурных скобках) и направление, откуда дует ветер: С - северный, СВ - северо-восточный, В - восточный, ЮВ - юго-восточный, Ю - южный, ЮЗ - юго-западный, З - западный, СЗ - северо-западный.
Видимость - горизонтальная дальность видимости в метрах или километрах. При видимости от 1 до 10 км при отсутствии осадков обычно наблюдается дымка, при ухудшении видимости до 1 км и менее - туман. В сухую погоду видимость может ухудшаться дымом, пылью или мглою.
Явления - указаны атмосферные явления, наблюдавшиеся в срок или в последний час перед сроком; фигурными скобками обозначены явления, наблюдавшиеся между сроками (за 1-3 часа до срока); квадратными скобками обозначены град или гололедные отложения с указанием их диаметра в мм.
Облачность - указаны через наклонную черту общая и нижняя облачность в баллах и высота нижней границы облаков в метрах; квадратными скобками обозначены формы облаков: Ci - перистые, Cs - перисто-слоистые, Cc - перисто-кучевые, Ac - высококучевые, As - высокослоистые, Sc - слоисто-кучевые, Ns - слоисто-дождевые, Cu - кучевые, Cb - кучево-дождевые. Подробнее классификацию облаков см. в Атласе облаков (PDF).
T - Температура воздуха - температура, измеренная на высоте 2 м над землей.
Td - Температура точки росы - температура, при понижении до которой содержащийся в воздухе водяной пар достигнет насыщения.
f - Относительная влажность воздуха - влажноcть воздуха, измеренная на высоте 2 м над землей.
Te - Эффективная температура - температура, которую ощущает одетый по сезону человек в тени. Характеристика душности погоды. При расчете учитывается влияние влажности воздуха и скорости ветра на теплоощущения человека.
Tes - Эффективная температура на солнце - температура, которую ощущает человек, с поправкой на солнечный нагрев. Характеристика знойности погоды. Зависит от высоты солнца над горизонтом, облачности и скорости ветра. Ночью, в пасмурную погоду, а также при ветре 12 м/с и более поправка равна нулю.
P - Атмосферное давление - приведенное к уровню моря атмосферное давление.
Po - Атмосферное давление - измеренное на уровне метеостанции атмосферное давление.
Tmin - Минимальная температура - минимум температуры воздуха на высоте 2 м над землей.
Tmax - Максимальная температура - максимум температуры воздуха на высоте 2 м над землей.
R - Количество осадков - Количество выпавших осадков за период времени, мм. При наведении курсора мыши на число - период времени, за который выпало указанное количество осадков.
R24 - Количество осадков - Количество выпавших осадков за 24 часа, мм.
S - Снежный покров - Высота снежного покрова, см. При наведении курсора мыши на число - состояние снежного покрова и степень покрытия местности в баллах.